Regional Weather Roundup
Issued by NWS

Home | Current Version | Previous Version | Text Only | Print | Product List | Glossary Off
Versions: 1 2 3 4 5 6 7 8 9 10 11 12 13 14 15 16 17 18 19 20 21 22 23 24 25 26 27 28 29 30 31 32 33 34 35 36 37 38 39 40 41 42 43 44 45 46 47 48 49 50

000
ASUS43 KLSX 232210
RWRMO

WEATHER SUMMARY FOR MISSOURI
NATIONAL WEATHER SERVICE SPRINGFIELD MO
500 PM CDT TUE AUG 23 2016

NOTE: "FAIR" INDICATES FEW OR NO CLOUDS BELOW 12,000 FEET WITH NO
       SIGNIFICANT WEATHER AND/OR OBSTRUCTIONS TO VISIBILITY.
       CURRENT SKY AND/OR WEATHER CONDITIONS ARE NOT AVAILABLE FOR
       CHILLICOTHE AND FARMINGTON.

MOZ001>031-035>038-043-044-053-054-232300-
...NORTHERN AND WESTERN MISSOURI...

CITY           SKY/WX    TMP DP  RH WIND       PRES   REMARKS
KANSAS CTY INT PTSUNNY   86  71  60 S17G32    29.95S HX  91
KANSAS C DTWN  PTSUNNY   86  72  62 S18G26    29.95S HX  92
LEE`S SUMMIT   PTSUNNY   85  72  65 S20G29    29.98F HX  91
ST JOSEPH      PTSUNNY   84  74  71 S18G28    29.91F HX  91
CHILLICOTHE      N/A     82  75  79 SE6       29.99F
KIRKSVILLE     CLOUDY    76  71  85 S13       30.05S

$$
MOZ066>068-077>081-088>096-101>105-232300-
...SOUTHWEST MISSOURI...

CITY           SKY/WX    TMP DP  RH WIND       PRES   REMARKS
SPRINGFIELD    CLOUDY    84  70  62 S16       30.08F
JOPLIN         CLOUDY    84  72  67 S17       30.02F
BRANSON        CLOUDY    82  72  69 S6        30.12F

$$
MOZ032>034-039>042-045>050-055>058-069>072-232300-
...CENTRAL MISSOURI...

CITY           SKY/WX    TMP DP  RH WIND       PRES   REMARKS
COLUMBIA       CLOUDY    77  73  87 S12G20    30.07F
JEFFERSON CITY CLOUDY    76  72  87 S8        30.06F
ROLLA          LGT RAIN  74  72  93 SE9       30.11F
SEDALIA        CLOUDY    81  74  79 S16G24    30.04F
WHITEMAN AFB   CLOUDY    82  78  88 S16G22    30.01F HX  90
OSAGE BEACH    PTSUNNY   78  75  90 SE7       30.08F

$$
MOZ051-052-059>065-232300-
...EAST CENTRAL MISSOURI...

CITY           SKY/WX    TMP DP  RH WIND       PRES   REMARKS
ST LOUIS INTL  LGT RAIN  78  69  73 S9        30.13F
SPIRIT OF STL  CLOUDY    75  72  90 SE5       30.11F
ST CHARLES     CLOUDY    75  72  90 S7        30.11F

$$
MOZ072>076-082>087-097>100-106>115-232300-
...SOUTH CENTRAL AND SOUTHEAST MISSOURI...

CITY           SKY/WX    TMP DP  RH WIND       PRES   REMARKS
CAPE GIRARDEAU MOSUNNY   83  73  72 S7        30.13F
FARMINGTON     CLOUDY    75  72  88 S6        30.17S
POPLAR BLUFF   MOSUNNY   83  73  72 S10       30.13F
WEST PLAINS    MOSUNNY   83  74  74 SE7       30.16F

$$



USA.gov is the U.S. government's official web portal to all federal, state and local government web resources and services.